www.pogodaiklimat.ru

Погода и климат >> Архив погоды >> Саудовская Аравия >> Аль-Кайсумах


ПОГОДА в Аль-Кайсумахе

  • Прогноз погоды в Аль-Кайсумахе
  • Монитор погоды в Аль-Кайсумахе

АРХИВ ПОГОДЫ в Аль-Кайсумахе

Время (UTC), дата Ветер
(напр.,м/с)
 
Видим.   Явления Облачность Т
(С)
Тd
(С)
f
(%)
Тe
(С)
Тes
(С)
Комфортность P
(гПа)
Po
(гПа)
Тmin
(С)
Tmax
(С)
R
(мм)
R24
(мм)
S
(см)
00 18.08 СЗ 3 10 км ясно +30.4 +6.0 22 +29 +29 жарко 1000.0 961.5
03 18.08 З 3 10 км ясно +28.2 +6.0 24 +27 +27 жарко 1000.7 961.9
06 18.08 С 3 8000 м пыль ясно +36.2 +9.0 19 +35 +44 очень
жарко
1002.1 963.5 +27.8
09 18.08 СЗ 4 10 км ясно +40.6 +8.0 14 +38 +52 опасность
солнечного
удара
1001.8 963.3
12 18.08 СЗ 5 10 км ясно +42.2 +7.0 12 +40 +45 очень
жарко
1000.6 962.1
15 18.08 СЗ 6 10 км ясно +40.9 +7.0 13 +38 +39 очень
жарко
1000.9 962.2
18 18.08 С 3 10 км ясно +36.0 +8.0 18 +34 +34 очень
жарко
1002.5 963.7 +42.8
21 18.08 В 2 10 км ясно +32.0 +9.0 24 +31 +31 жарко 1002.2 963.6
00 19.08 ЮВ 2 10 км ясно +29.3 +8.0 26 +29 +29 жарко 1002.2 963.5
03 19.08 штиль 0 10 км ясно +28.3 +8.0 28 +28 +28 жарко 1003.4 964.6
06 19.08 Ю 2 10 км ясно +34.0 +9.0 22 +33 +44 жарко 1004.7 966.0 +27.0
09 19.08 СВ 1 10 км ясно +41.0 +9.0 15 +39 +63 опасность
солнечного
удара
1004.3 965.7
12 19.08 СВ 2 10 км ясно +43.0 +9.0 13 +41 +52 опасность
перегрева
1003.3 964.7
15 19.08 С 3 10 км ясно +41.8 +9.0 14 +40 +40 очень
жарко
1003.4 964.7
18 19.08 штиль 0 10 км ясно +36.4 +8.0 18 +35 +35 очень
жарко
1004.8 966.0 +43.8
21 19.08 В 3 10 км ясно +33.0 +8.0 21 +31 +31 жарко 1004.0 965.5
00 20.08 ЮВ 3 10 км ясно +29.8 +7.0 24 +29 +29 жарко 1003.5 964.9
03 20.08 Ю 1 10 км ясно +28.2 +8.0 28 +28 +28 жарко 1004.7 965.9
06 20.08 ЮЗ 4 10 км ясно +38.0 +10.0 18 +36 +45 очень
жарко
1005.7 967.1 +27.0
09 20.08 штиль 0 10 км ясно +42.8 +10.0 14 +41 +69 опасность
перегрева
1005.0 966.5
12 20.08 С 4 10 км ясно +44.2 +9.0 12 +42 +50 опасность
перегрева
1003.7 965.2
15 20.08 СЗ 5 10 км ясно +43.0 +9.0 13 +41 +41 опасность
перегрева
1003.3 964.6
18 20.08 С 2 10 км ясно +37.0 +9.0 18 +35 +35 очень
жарко
1004.1 965.6 +46.0
21 20.08 штиль 0 10 км ясно +32.2 +9.0 24 +31 +31 жарко 1004.0 965.5
00 21.08 штиль 0 10 км ясно +31.4 +9.0 25 +31 +31 жарко 1003.3 964.9
03 21.08 штиль 0 10 км ясно +29.3 +8.0 26 +29 +29 жарко 1004.1 965.5
06 21.08 З 2 10 км ясно +38.2 +9.0 17 +36 +48 очень
жарко
1005.3 966.8 +28.2
09 21.08 СЗ 3 10 км ясно +44.0 +10.0 13 +42 +59 опасность
перегрева
1004.2 965.8
12 21.08 СВ 3 10 км ясно +45.0 +10.0 13 +44 +53 опасность
перегрева
1002.2 963.9
15 21.08 С 5 10 км ясно +43.0 +10.0 14 +41 +41 опасность
перегрева
1002.2 963.6
18 21.08 С 2 10 км ясно +39.0 +10.0 18 +38 +38 очень
жарко
1002.8 964.5 +46.0
21 21.08 С 2 10 км ясно +34.4 +10.0 23 +34 +34 очень
жарко
1002.2 964.0
00 22.08 СЗ 2 10 км ясно +32.0 +9.0 24 +31 +31 жарко 1002.3 964.0
03 22.08 С 4 10 км 3/1 1050 м
[Sc Ac trans]
+31.5 +10.0 27 +31 +31 жарко 1003.1 964.6
06 22.08 С 8 10 км 3/0
[Ac trans]
+37.2 +9.0 18 +35 +37 очень
жарко
1003.6 965.2 +30.0
09 22.08 С 8 10 км ясно +42.0 +13.0 18 +42 +45 опасность
перегрева
1002.8 964.5
12 22.08 С 6 10 км 4/0
[Ac trans]
+44.6 +13.0 16 +44 +47 опасность
перегрева
1001.7 963.4
15 22.08 С 6 10 км 5/5 1050 м
[Sc]
+42.0 +12.0 17 +41 +41 опасность
перегрева
1001.7 963.2
18 22.08 С 4 10 км 4/0
[Ac trans]
+37.2 +11.0 21 +36 +36 очень
жарко
1002.8 964.3 +45.6
21 22.08 С 3 10 км ясно +33.5 +11.0 25 +33 +33 жарко 1002.8 964.4
00 23.08 С 2 10 км ясно +31.6 +10.0 26 +31 +31 жарко 1002.4 964.0
03 23.08 СЗ 3 10 км ясно +28.4 +11.0 34 +29 +29 жарко 1003.3 964.6
06 23.08 С 6 10 км ясно +35.4 +10.0 21 +34 +38 очень
жарко
1003.8 965.2 +28.2
09 23.08 С 6 10 км ясно +40.3 +10.0 16 +39 +46 очень
жарко
1003.5 965.0
12 23.08 С 6 10 км ясно +43.3 +8.0 12 +41 +45 опасность
перегрева
1001.6 963.2
15 23.08 С 6 10 км ясно +42.2 +8.0 13 +40 +40 очень
жарко
1001.7 963.0
18 23.08 С 4 10 км ясно +36.0 +8.0 18 +34 +34 очень
жарко
1003.3 964.6 +44.0
21 23.08 С 4 10 км ясно +34.0 +7.0 19 +32 +32 жарко 1002.9 964.4
00 24.08 штиль 0 10 км ясно +31.4 +8.0 23 +30 +30 жарко 1002.7 964.3
03 24.08 С 4 10 км ясно +30.8 +9.0 26 +30 +30 жарко 1004.0 965.4
06 24.08 С 5 10 км ясно +37.8 +10.0 19 +37 +42 очень
жарко
1004.6 966.0 +30.0
09 24.08 С 6 10 км ясно +43.7 +11.0 15 +43 +50 опасность
перегрева
1002.5 964.2
12 24.08 С 7 10 км ясно +46.1 +7.0 10 +44 +46 опасность
перегрева
1000.9 962.7
15 24.08 С 6 10 км 3/0
[Ac trans]
+44.0 +7.0 11 +42 +42 опасность
перегрева
1001.2 962.8
18 24.08 СЗ 3 10 км 3/0
[Ac trans]
+37.0 +7.0 16 +35 +35 очень
жарко
1003.1 964.6 +47.0
21 24.08 штиль 0 10 км ясно +34.2 +8.0 20 +33 +33 жарко 1002.8 964.5

 

Местоположение метеостанции Аль-Кайсумах (Саудовская Аравия): широта 28.32 долгота 46.13 высота над уровнем моря 358 м.

В архиве по умолчанию представлена погода в Аль-Кайсумахе за последнюю неделю. Архивные данные за месяц целиком и за предыдущие месяцы, начиная с января 2011 года, Вы можете получить, выбрав интересующий диапазон дат из раскрывающегося списка и нажав кнопку "Ввод!".


*Определитесь, кто Вы:
робот инопланетянин человек

Внимание! Время в таблицах - всемирное. Для получения местного времени необходимо прибавить поправку, которая равна 3 ч.

Смотрите также архив погоды в соседних городах и на ближайших метеорологических станциях:

Погода в Хафар-аль-Батине (Саудовская Аравия) (75 км)
Погода на Аль-Салми (Кувейт) (102 км)
Погода на Абраке Аль Хабари (Кувейт) (138 км)
Погода в Минагише (Кувейт) (160 км)
Погода в Эль-Джахра (Кувейт) (187 км)
Погода в Сулайбии (Кувейт) (188 км)
Погода в Аль-Вафре (Кувейт) (191 км)
Погода на Метеостанции Jal Aliyah (Кувейт) (201 км)
Погода в Эль-Кувейте (Кувейт) (205 км)
Погода на Метеостанции Mintribah (Кувейт) (206 км)

Пояснения к столбцам:

Ветер - указаны скорость ветра в м/с - средняя за 10 мин, порывы в срок и между сроками (в фигурных скобках) и направление, откуда дует ветер: С - северный, СВ - северо-восточный, В - восточный, ЮВ - юго-восточный, Ю - южный, ЮЗ - юго-западный, З - западный, СЗ - северо-западный.
Видимость - горизонтальная дальность видимости в метрах или километрах. При видимости от 1 до 10 км при отсутствии осадков обычно наблюдается дымка, при ухудшении видимости до 1 км и менее - туман. В сухую погоду видимость может ухудшаться дымом, пылью или мглою.
Явления - указаны атмосферные явления, наблюдавшиеся в срок или в последний час перед сроком; фигурными скобками обозначены явления, наблюдавшиеся между сроками (за 1-3 часа до срока); квадратными скобками обозначены град или гололедные отложения с указанием их диаметра в мм.
Облачность - указаны через наклонную черту общая и нижняя облачность в баллах и высота нижней границы облаков в метрах; квадратными скобками обозначены формы облаков: Ci - перистые, Cs - перисто-слоистые, Cc - перисто-кучевые, Ac - высококучевые, As - высокослоистые, Sc - слоисто-кучевые, Ns - слоисто-дождевые, Cu - кучевые, Cb - кучево-дождевые. Подробнее классификацию облаков см. в Атласе облаков (PDF).
T - Температура воздуха - температура, измеренная на высоте 2 м над землей.
Td - Температура точки росы - температура, при понижении до которой содержащийся в воздухе водяной пар достигнет насыщения.
f - Относительная влажность воздуха - влажноcть воздуха, измеренная на высоте 2 м над землей.
Te - Эффективная температура - температура, которую ощущает одетый по сезону человек в тени. Характеристика душности погоды. При расчете учитывается влияние влажности воздуха и скорости ветра на теплоощущения человека.
Tes - Эффективная температура на солнце - температура, которую ощущает человек, с поправкой на солнечный нагрев. Характеристика знойности погоды. Зависит от высоты солнца над горизонтом, облачности и скорости ветра. Ночью, в пасмурную погоду, а также при ветре 12 м/с и более поправка равна нулю.
P - Атмосферное давление - приведенное к уровню моря атмосферное давление.
Po - Атмосферное давление - измеренное на уровне метеостанции атмосферное давление.
Tmin - Минимальная температура - минимум температуры воздуха на высоте 2 м над землей.
Tmax - Максимальная температура - максимум температуры воздуха на высоте 2 м над землей.
R - Количество осадков - Количество выпавших осадков за период времени, мм. При наведении курсора мыши на число - период времени, за который выпало указанное количество осадков.
R24 - Количество осадков - Количество выпавших осадков за 24 часа, мм.
S - Снежный покров - Высота снежного покрова, см. При наведении курсора мыши на число - состояние снежного покрова и степень покрытия местности в баллах.